{"data":{"norad_id":59554,"epoch":"2026-05-24T17:31:04.852992Z","epoch_age_seconds":105161,"freshness":"FRESH","line1":"1 59554U 24074W   26144.72991728  .00001611  00000+0  68055-4 0  9993","line2":"2 59554  42.9999 238.0550 0001430 261.8416  98.2274 15.27582292118051","mean_motion":15.27582292,"eccentricity":0.000143,"inclination_deg":42.9999,"raan_deg":238.055,"arg_perigee_deg":261.8416,"mean_anomaly_deg":98.2274,"bstar":6.8055e-5,"rev_number":11805,"period_min":94.266607274864,"perigee_km":482.06108434538,"apogee_km":484.02338160601,"semimajor_km":6861.1792329757,"source":"CELESTRAK","updated_at":"2026-05-25T13:38:18.983430Z"}}